Miscellaneous Local Product
Issued by NWS Hastings, NE

Home | Current Version | Previous Version | Graphics & Text | Print | Product List | Glossary On
Versions: 1 2 3 4 5 6 7 8 9 10 11 12 13 14 15 16 17 18 19 20 21 22 23 24 25 26 27 28 29 30 31 32 33 34 35 36 37 38 39 40 41 42 43 44 45 46 47 48 49 50
000
AXUS43 KGID 311702
MISGRI

GID CWA HOURLY WEATHER ROUNDUP
NATIONAL WEATHER SERVICE HASTINGS NE
1200 PM CDT THU JUL 31 2014

NOTE: "FAIR" INDICATES FEW OR NO CLOUDS BELOW 12,000 FEET WITH NO
SIGNIFICANT WEATHER AND/OR OBSTRUCTIONS TO VISIBILITY.

...SOUTH CENTRAL NEBRASKA...

CITY           SKY/WX    TMP DP  RH WIND       PRES   REMARKS
GRAND ISLAND   PTSUNNY   83  60  45 S14       30.10S
HASTINGS       MOSUNNY   82  57  42 SW12      30.11F
KEARNEY        PTSUNNY   82  59  44 S17       30.11F
ORD            MOSUNNY   82  56  40 W10       30.06S
YORK           SUNNY     79  59  50 SW13      30.11S
AURORA         MOSUNNY   80  60  51 S13       30.10F
LEXINGTON      SUNNY     85  55  35 W10G16    30.12S
HOLDREGE       MOSUNNY   81  57  43 SW10      30.13S
HEBRON         MOSUNNY   80  48  33 SW5       30.12F

...NEBRASKA PANHANDLE...

CITY           SKY/WX    TMP DP  RH WIND       PRES   REMARKS
CHADRON        SUNNY     80  50  34 E7        30.19F
ALLIANCE       MOSUNNY   80  42  25 VRB5      30.21F
SCOTTSBLUFF    SUNNY     78  55  44 S6        30.23S
SIDNEY         SUNNY     79  47  32 CALM      30.25S

...WESTERN AND NORTH CENTRAL NEBRASKA...

CITY           SKY/WX    TMP DP  RH WIND       PRES   REMARKS
VALENTINE      SUNNY     82  52  35 N13       30.12R
AINSWORTH      SUNNY     79  55  43 N12       30.11R
ONEILL         SUNNY     79  60  51 E3        30.06F
BROKEN BOW     MOSUNNY   82  62  50 W10       30.10S
IMPERIAL       SUNNY     79  54  41 W13       30.19S
NORTH PLATTE   SUNNY     80  60  50 VRB7      30.14F
MCCOOK         SUNNY     83  56  39 W10       30.16S

...EASTERN NEBRASKA...

CITY           SKY/WX    TMP DP  RH WIND       PRES   REMARKS
NORFOLK        PTSUNNY   79  58  48 S10       30.08F
SO SIOUX CITY  CLOUDY    68  63  84 S3        30.09F
TEKAMAH        CLOUDY    77  57  50 S5        30.09S
ALBION         MOSUNNY   78  59  52 S10       30.06F
OMAHA EPPLEY   MOSUNNY   80  54  40 S9        30.09F
MILLARD        MOSUNNY   79  54  42 S3        30.09F
LINCOLN        SUNNY     82  53  36 SW12      30.11S
NEBRASKA CITY  MOSUNNY   78  52  40 SW3       30.12F
BEATRICE       SUNNY     79  55  43 S8        30.12S
FALLS CITY     MOSUNNY   81  52  36 VRB3      30.12S

...NORTHERN KANSAS...

CITY           SKY/WX    TMP DP  RH WIND       PRES   REMARKS
GOODLAND       PTSUNNY   74  53  48 W9        30.24S
HILL CITY      SUNNY     83  51  33 W3        30.15F
NORTON         SUNNY     82  46  28 W10       30.14F
PHILLIPSBURG   SUNNY     81  57  44 W6        30.14S
SMITH CENTER   SUNNY     79  59  50 SW8       30.13F
HAYS           SUNNY     79  55  44 NE5       30.16S
RUSSELL        MOSUNNY   79  54  41 NE3       30.14S
CONCORDIA      SUNNY     80  55  42 S6        30.13S
SALINA         MOSUNNY   80  51  36 CALM      30.14S
TOPEKA         MOSUNNY   81  50  33 CALM      30.13S



USA.gov is the U.S. government's official web portal to all federal, state and local government web resources and services.